Weather History for Kelso-Longview, WA

Change the Weather History Date:

Wednesday, February 5, 2014

  Actual Average Record
Temperature  
Mean Temperature 27 °F -  
Max Temperature 33 °F 46 °F 57 °F (1998)
Min Temperature 21 °F 33 °F 21 °F (2014)
Degree Days  
Heating Degree Days 38    
Moisture  
Dew Point 4 °F    
Average Humidity 38    
Maximum Humidity 59    
Minimum Humidity 29    
Precipitation  
Precipitation 0.00 in - - ()
Sea Level Pressure  
Sea Level Pressure 30.40 in    
Wind  
Wind Speed 6 mph (SE)    
Max Wind Speed 16 mph    
Max Gust Speed 24 mph    
Visibility 10 miles    
Events      
Averages and records for this station are not official NWS values.
T = Trace of Precipitation, MM = Missing Value Source: NWS Daily Summary

Daily Weather History Graph

Daily Weather History Graph

Search for Another Location

Airport:

Trip Planner

Search our weather history database for the weather conditions in past years. The results will help you decide how hot, cold, wet, or windy it might be!

Date:

Astronomy

Feb. 05, 2014 Rise Set
Actual Time 7:28 AM PST 5:22 PM PST
Civil Twilight 6:57 AM PST 5:54 PM PST
Nautical Twilight 6:21 AM PST 6:30 PM PST
Astronomical Twilight 5:46 AM PST 7:05 PM PST
Moon 10:23 AM PST (2/5) No Moon Set
Length of Visible Light 10h 57m
Length of Day
9h 54m
Waxing Crescent, 40% of the Moon is Illuminated
Feb 5
Waxing Crescent
Feb 6
First Quarter
Feb 14
Full
Feb 22
Last Quarter
Mar 1
New

Hourly Weather History & Observations

Time (PST) Temp. Windchill Dew Point Humidity Pressure Visibility Wind Dir Wind Speed Gust Speed Precip Events Conditions
12:15 AM 28.4 °F 20.4 °F 8.6 °F 43% 30.40 in 10.0 mi ESE 8.1 mph - N/A   Clear
12:35 AM 28.4 °F 19.7 °F 8.6 °F 43% 30.40 in 10.0 mi ESE 9.2 mph - N/A   Clear
12:55 AM 28.4 °F - 8.6 °F 43% 30.40 in 10.0 mi Calm Calm - N/A   Clear
1:15 AM 26.6 °F - 8.6 °F 47% 30.41 in 10.0 mi Calm Calm - N/A   Clear
1:35 AM 28.4 °F 24.6 °F 8.6 °F 43% 30.41 in 10.0 mi ESE 3.5 mph - N/A   Clear
1:55 AM 28.4 °F 19.7 °F 8.6 °F 43% 30.41 in 10.0 mi East 9.2 mph - N/A   Clear
2:15 AM 28.4 °F 21.2 °F 6.8 °F 40% 30.41 in 10.0 mi ESE 6.9 mph - N/A   Clear
2:35 AM 26.6 °F - 6.8 °F 43% 30.42 in 10.0 mi Calm Calm - N/A   Clear
2:55 AM 26.6 °F 22.6 °F 6.8 °F 43% 30.42 in 10.0 mi ESE 3.5 mph - N/A   Clear
3:15 AM 26.6 °F - 6.8 °F 43% 30.42 in 10.0 mi Calm Calm - N/A   Clear
3:35 AM 26.6 °F 19.1 °F 6.8 °F 43% 30.42 in 10.0 mi ESE 6.9 mph - N/A   Clear
3:55 AM 26.6 °F 19.1 °F 6.8 °F 43% 30.43 in 10.0 mi SE 6.9 mph - N/A   Clear
4:15 AM 26.6 °F 22.6 °F 6.8 °F 43% 30.43 in 10.0 mi ESE 3.5 mph - N/A   Clear
4:35 AM 26.6 °F 21.2 °F 6.8 °F 43% 30.43 in 10.0 mi ESE 4.6 mph - N/A   Clear
4:55 AM 26.6 °F - 6.8 °F 43% 30.44 in 10.0 mi Calm Calm - N/A   Clear
5:15 AM 23.0 °F - 10.4 °F 59% 30.44 in 10.0 mi Calm Calm - N/A   Clear
5:35 AM 23.0 °F - 10.4 °F 59% 30.44 in 10.0 mi Calm Calm - N/A   Clear
5:55 AM 24.8 °F - 8.6 °F 50% 30.44 in 10.0 mi Calm Calm - N/A   Clear
6:15 AM 24.8 °F 19.1 °F 8.6 °F 50% 30.44 in 10.0 mi ESE 4.6 mph - N/A   Clear
6:35 AM 24.8 °F 17.9 °F 5.0 °F 43% 30.44 in 10.0 mi SE 5.8 mph - N/A   Clear
6:55 AM 24.8 °F - 6.8 °F 46% 30.44 in 10.0 mi Calm Calm - N/A   Clear
7:15 AM 23.0 °F - 5.0 °F 46% 30.45 in 10.0 mi Calm Calm - N/A   Clear
7:35 AM 24.8 °F - 3.2 °F 40% 30.45 in 10.0 mi Calm Calm - N/A   Clear
7:55 AM 23.0 °F - 3.2 °F 43% 30.46 in 10.0 mi Calm Calm - N/A   Clear
8:15 AM 24.8 °F - 5.0 °F 43% 30.46 in 10.0 mi Calm Calm - N/A   Clear
8:35 AM 24.8 °F - 3.2 °F 40% 30.46 in 10.0 mi Calm Calm - N/A   Clear
8:55 AM 26.6 °F 21.2 °F 3.2 °F 37% 30.45 in 10.0 mi SSE 4.6 mph - N/A   Clear
9:15 AM 26.6 °F 21.2 °F 3.2 °F 37% 30.45 in 10.0 mi SE 4.6 mph - N/A   Clear
9:35 AM 28.4 °F 21.2 °F 3.2 °F 34% 30.45 in 10.0 mi SSE 6.9 mph - N/A   Clear
9:55 AM 28.4 °F 24.6 °F 3.2 °F 34% 30.45 in 6.0 mi ESE 3.5 mph - N/A   Clear
10:15 AM 28.4 °F 20.4 °F 3.2 °F 34% 30.45 in 10.0 mi SE 8.1 mph - N/A   Clear
10:35 AM 28.4 °F 19.1 °F 3.2 °F 34% 30.46 in 10.0 mi SSE 10.4 mph 16.1 mph N/A   Clear
10:55 AM 30.2 °F 23.4 °F 3.2 °F 32% 30.45 in 10.0 mi ESE 6.9 mph - N/A   Clear
11:15 AM 30.2 °F 19.3 °F 3.2 °F 32% 30.45 in 10.0 mi SSE 15.0 mph 18.4 mph N/A   Clear
11:35 AM 30.2 °F 19.8 °F 3.2 °F 32% 30.44 in 10.0 mi SE 13.8 mph 20.7 mph N/A   Clear
11:55 AM 30.2 °F 21.3 °F 3.2 °F 32% 30.43 in 10.0 mi SSE 10.4 mph 19.6 mph N/A   Clear
12:15 PM 30.2 °F 20.8 °F 3.2 °F 32% 30.43 in 10.0 mi SSE 11.5 mph 21.9 mph N/A   Clear
12:35 PM 32.0 °F 21.2 °F 5.0 °F 32% 30.42 in 10.0 mi SSE 16.1 mph 21.9 mph N/A   Clear
12:55 PM 32.0 °F 23.0 °F 5.0 °F 32% 30.41 in 10.0 mi SSE 11.5 mph 18.4 mph N/A   Clear
1:15 PM 33.8 °F 25.8 °F 5.0 °F 30% 30.41 in 10.0 mi SSE 10.4 mph 18.4 mph N/A   Clear
1:35 PM 32.0 °F 21.6 °F 5.0 °F 32% 30.40 in 10.0 mi SSE 15.0 mph 21.9 mph N/A   Clear
1:55 PM 32.0 °F 22.1 °F 3.2 °F 30% 30.40 in 10.0 mi SSE 13.8 mph 21.9 mph N/A   Clear
2:15 PM 32.0 °F 22.1 °F 5.0 °F 32% 30.39 in 10.0 mi SE 13.8 mph 19.6 mph N/A   Clear
2:35 PM 32.0 °F 23.0 °F 3.2 °F 30% 30.39 in 10.0 mi East 11.5 mph 18.4 mph N/A   Clear
2:55 PM 32.0 °F 22.1 °F 3.2 °F 30% 30.38 in 10.0 mi SSE 13.8 mph 19.6 mph N/A   Clear
3:15 PM 32.0 °F 22.5 °F 3.2 °F 30% 30.38 in 10.0 mi SSE 12.7 mph 19.6 mph N/A   Clear
3:35 PM 30.2 °F 19.8 °F 3.2 °F 32% 30.38 in 10.0 mi East 13.8 mph 18.4 mph N/A   Clear
3:55 PM 30.2 °F 20.8 °F 1.4 °F 29% 30.38 in 10.0 mi ESE 11.5 mph 24.2 mph N/A   Clear
4:15 PM 28.4 °F 17.0 °F 1.4 °F 31% 30.38 in 10.0 mi ESE 15.0 mph 21.9 mph N/A   Clear
4:35 PM 28.4 °F 18.5 °F 1.4 °F 31% 30.37 in 10.0 mi ESE 11.5 mph 20.7 mph N/A   Clear
4:55 PM 28.4 °F 18.0 °F 1.4 °F 31% 30.37 in 10.0 mi ESE 12.7 mph 20.7 mph N/A   Clear
5:15 PM 26.6 °F 14.7 °F 1.4 °F 34% 30.37 in 10.0 mi SE 15.0 mph 19.6 mph N/A   Clear
5:35 PM 26.6 °F 16.8 °F 1.4 °F 34% 30.37 in 10.0 mi SE 10.4 mph - N/A   Clear
5:55 PM 26.6 °F 15.7 °F 1.4 °F 34% 30.37 in 10.0 mi ESE 12.7 mph 18.4 mph N/A   Clear
6:15 PM 24.8 °F 12.4 °F 1.4 °F 36% 30.37 in 10.0 mi ESE 15.0 mph 21.9 mph N/A   Clear
6:35 PM 24.8 °F 15.3 °F -0.4 °F 34% 30.37 in 10.0 mi ESE 9.2 mph 19.6 mph N/A   Clear
6:55 PM 24.8 °F 13.4 °F -0.4 °F 34% 30.36 in 10.0 mi ESE 12.7 mph 24.2 mph N/A   Clear
7:15 PM 24.8 °F 14.6 °F -0.4 °F 34% 30.36 in 10.0 mi ESE 10.4 mph 17.3 mph N/A   Clear
7:35 PM 24.8 °F 14.6 °F -0.4 °F 34% 30.35 in 10.0 mi ESE 10.4 mph 16.1 mph N/A   Clear
7:55 PM 23.0 °F 12.4 °F -0.4 °F 36% 30.35 in 10.0 mi SE 10.4 mph 18.4 mph N/A   Clear
8:15 PM 23.0 °F 17.0 °F -0.4 °F 36% 30.34 in 10.0 mi East 4.6 mph 18.4 mph N/A   Clear
8:35 PM 23.0 °F 15.8 °F -0.4 °F 36% 30.34 in 10.0 mi East 5.8 mph - N/A   Clear
8:55 PM 23.0 °F 13.1 °F -0.4 °F 36% 30.34 in 10.0 mi SE 9.2 mph - N/A   Clear
9:15 PM 23.0 °F 12.4 °F -0.4 °F 36% 30.33 in 10.0 mi SE 10.4 mph - N/A   Clear
9:35 PM 23.0 °F 13.9 °F -0.4 °F 36% 30.33 in 10.0 mi SE 8.1 mph - N/A   Clear
9:55 PM 21.2 °F 13.6 °F -0.4 °F 39% 30.32 in 10.0 mi ESE 5.8 mph - N/A   Clear
10:15 PM 21.2 °F 16.4 °F -0.4 °F 39% 30.32 in 10.0 mi SE 3.5 mph - N/A   Clear
10:35 PM 21.2 °F 10.9 °F -0.4 °F 39% 30.32 in 10.0 mi SSE 9.2 mph - N/A   Clear
10:55 PM 21.2 °F 14.9 °F -0.4 °F 39% 30.32 in 10.0 mi ESE 4.6 mph - N/A   Clear
11:15 PM 21.2 °F 13.6 °F -0.4 °F 39% 30.31 in 10.0 mi East 5.8 mph - N/A   Clear
11:35 PM 21.2 °F 13.6 °F -0.4 °F 39% 30.30 in 10.0 mi SE 5.8 mph - N/A   Clear
11:55 PM 21.2 °F 16.4 °F -0.4 °F 39% 30.29 in 10.0 mi East 3.5 mph - N/A   Clear